Location: Newark
(43.6486°N, 79.3853°W)
Time: 23:35:29
(UTC+00:00)

STARLINK-1302 - Pass Details

Date: 07 April 2020
Orbit: 549 x 550 km, 53.0° (Epoch: 03 June)

Event Time Altitude Azimuth Distance (km) Brightness Sun altitude
Rises 10:00:04 0° 305° (NW) 2,705 6.8 -9.2°
Reaches altitude 10° 10:02:28 10° 315° (NW) 1,811 6.0 -8.7°
Maximum altitude 10:06:12 33° 20° (NNE) 929 5.2 -8.1°
Drops below altitude 10° 10:09:56 10° 86° (E) 1,806 7.8 -7.5°
Sets 10:12:20 0° 96° (E) 2,697 8.6 -7.0°
